Location: Lancaster
(54.0470°N, 2.8020°W)
Time: 02:30:26
(UTC+01:00)

COSMOS 2428 - Visible Passes

Search period start: 17 September 2014 00:00
Search period end: 27 September 2014 00:00
Orbit: 845 x 857 km, 71.0° (Epoch: 16 September)

Date Brightness Start Highest point End Pass type
(mag) Time Alt. Az. Time Alt. Az. Time Alt. Az.
17 Sep 4.4 01:45:19 24° E 01:45:19 24° E 01:48:34 10° NE visible
17 Sep 2.6 03:27:20 69° W 03:27:41 71° NW 03:33:25 10° NNE visible
17 Sep 4.3 05:09:20 14° WNW 05:12:59 24° NNW 05:17:33 10° NNE visible
18 Sep 4.5 01:33:27 23° ENE 01:33:27 23° ENE 01:36:20 10° NE visible
18 Sep 2.7 03:15:28 71° NW 03:15:28 71° NW 03:21:11 10° NNE visible
18 Sep 4.3 04:57:28 15° WNW 05:00:44 24° NNW 05:05:18 10° NNE visible
19 Sep 4.6 01:21:34 21° ENE 01:21:34 21° ENE 01:24:05 10° NE visible
19 Sep 2.8 03:03:35 68° NNW 03:03:35 68° NNW 03:08:56 10° NNE visible
19 Sep 4.3 04:45:35 16° WNW 04:48:30 24° NNW 04:53:04 10° NNE visible
20 Sep 4.7 01:09:40 20° ENE 01:09:40 20° ENE 01:11:50 10° NE visible
20 Sep 3.0 02:51:40 63° N 02:51:40 63° N 02:56:42 10° NNE visible
20 Sep 4.3 04:33:41 18° WNW 04:36:15 24° NNW 04:40:49 10° NNE visible
21 Sep 4.8 00:57:45 18° ENE 00:57:45 18° ENE 00:59:36 10° NE visible
21 Sep 3.2 02:39:45 57° N 02:39:45 57° N 02:44:27 10° NNE visible
21 Sep 4.3 04:21:46 19° WNW 04:24:00 24° NNW 04:28:35 10° NNE visible
21 Sep 4.9 06:07:22 10° NW 06:10:28 15° N 06:13:34 10° NNE visible
22 Sep 4.9 00:45:49 17° ENE 00:45:49 17° ENE 00:47:21 10° NE visible
22 Sep 3.4 02:27:49 52° N 02:27:49 52° N 02:32:12 10° NNE visible
22 Sep 4.3 04:09:49 20° WNW 04:11:46 24° NNW 04:16:20 10° NNE visible
22 Sep 4.9 05:55:07 10° NW 05:58:13 15° N 06:01:19 10° NNE visible
23 Sep 5.0 00:33:52 15° ENE 00:33:52 15° ENE 00:35:06 10° NE visible
23 Sep 3.6 02:15:52 47° NNE 02:15:52 47° NNE 02:19:58 10° NNE visible
23 Sep 4.3 03:57:52 21° NW 03:59:31 24° NNW 04:04:05 10° NNE visible
23 Sep 5.0 05:42:52 10° NW 05:45:58 15° N 05:49:05 10° NNE visible
24 Sep 5.0 00:21:54 14° NE 00:21:54 14° NE 00:22:51 10° NE visible
24 Sep 3.8 02:03:54 42° NNE 02:03:54 42° NNE 02:07:43 10° NNE visible
24 Sep 4.3 03:45:54 22° NW 03:47:16 24° NNW 03:51:50 10° NNE visible
24 Sep 5.0 05:30:37 10° NW 05:33:43 15° N 05:36:50 10° NNE visible
25 Sep 5.1 00:09:56 13° NE 00:09:56 13° NE 00:10:37 10° NE visible
25 Sep 3.9 01:51:56 39° NNE 01:51:56 39° NNE 01:55:28 10° NNE visible
25 Sep 4.3 03:33:56 23° NW 03:35:01 24° NNW 03:39:36 10° NNE visible
25 Sep 5.0 05:18:22 10° NW 05:21:28 15° N 05:24:35 10° NNE visible
25 Sep 5.2 23:57:56 12° NE 23:57:56 12° NE 23:58:22 10° NE visible
26 Sep 4.1 01:39:56 35° NNE 01:39:56 35° NNE 01:43:13 10° NNE visible
26 Sep 4.3 03:21:56 23° NW 03:22:46 24° NNW 03:27:21 10° NNE visible
26 Sep 5.0 05:06:07 10° NW 05:09:13 15° N 05:12:20 10° NNE visible
26 Sep 5.2 23:45:56 11° NE 23:45:56 11° NE 23:46:07 10° NE visible
